Cairns, Australia

7:59 PM AEST on June 24, 2017 (GMT +1000)
Cairns International

Weather History for YBCS - August, 2013

Change the Weather History Date:

Saturday, August 17, 2013

  Actual Average Record
Temperature  
Mean Temperature 74 °F -  
Max Temperature 83 °F 81 °F 84 °F (1998)
Min Temperature 66 °F 65 °F 59 °F (2001)
Cooling Degree Days 10    
Growing Degree Days 24 (Base 50)    
Moisture  
Dew Point 64 °F    
Average Humidity 68    
Maximum Humidity 88    
Minimum Humidity 38    
Precipitation  
Precipitation 0.00 in 0.04 in - ()
Sea Level Pressure  
Sea Level Pressure 30.01 in    
Wind  
Wind Speed 9 mph ()    
Max Wind Speed 15 mph    
Max Gust Speed -    
Visibility 6.7 miles    
Events      
Averages and records for this station are not official NWS values.
T = Trace of Precipitation, MM = Missing Value Source: Averaged Metar Reports

Daily Weather History Graph

Daily Weather History Graph

Search for Another Location

Airport or City:

Trip Planner

Search our weather history database for the weather conditions in past years. The results will help you decide how hot, cold, wet, or windy it might be!

Date:

Astronomy

Aug. 17, 2013 Rise Set
Actual Time 6:34 AM AEST 6:08 PM AEST
Civil Twilight 6:12 AM AEST 6:30 PM AEST
Nautical Twilight 5:46 AM AEST 6:55 PM AEST
Astronomical Twilight 5:21 AM AEST 7:21 PM AEST
Moon 2:12 PM AEST (8/17) 2:32 AM AEST (8/17)
Length of Visible Light 12h 18m
Length of Day
11h 33m
Waxing Gibbous, 79% of the Moon is Illuminated
Aug 17
Waxing Gibbous
Aug 21
Full
Aug 28
Last Quarter
Sep 5
New
Sep 13
First Quarter

Hourly Weather History & Observations

Time (AEST) Temp. Heat Index Dew Point Humidity Pressure Visibility Wind Dir Wind Speed Gust Speed Precip Events Conditions
12:00 AM 72 °F - 65 °F 72% 30.03 in - South 9.2 mph - -   Overcast
12:00 AM 71.6 °F - 64.4 °F 78% 30.04 in 6.2 mi South 9.2 mph - N/A   Scattered Clouds
12:30 AM 71.6 °F - 64.4 °F 78% 30.01 in 6.2 mi South 9.2 mph - N/A   Partly Cloudy
1:00 AM 71 °F - 64 °F 72% 30.03 in - South 8.1 mph - -  
1:00 AM 71.6 °F - 64.4 °F 78% 30.01 in 6.2 mi South 8.1 mph - N/A   Partly Cloudy
1:30 AM 71.6 °F - 64.4 °F 78% 30.01 in 6.2 mi South 10.4 mph - N/A   Partly Cloudy
2:00 AM 71.6 °F - 64.4 °F 78% 30.01 in 6.2 mi South 8.1 mph - N/A   Partly Cloudy
2:30 AM 71.6 °F - 64.4 °F 78% 30.01 in 6.2 mi South 8.1 mph - N/A   Scattered Clouds
3:00 AM 71 °F - 64 °F 73% 30.00 in - South 9.2 mph - -   Overcast
3:00 AM 71.6 °F - 64.4 °F 78% 30.01 in 6.2 mi South 9.2 mph - N/A   Scattered Clouds
3:30 AM 69.8 °F - 64.4 °F 83% 29.98 in 6.2 mi SSE 6.9 mph - N/A   Partly Cloudy
4:00 AM 71.6 °F - 64.4 °F 78% 29.98 in 6.2 mi South 8.1 mph - N/A   Partly Cloudy
4:30 AM 68.0 °F - 64.4 °F 88% 29.98 in 6.2 mi SSE 6.9 mph - N/A   Partly Cloudy
5:00 AM 68.0 °F - 64.4 °F 88% 30.01 in 6.2 mi SE 9.2 mph - N/A   Partly Cloudy
5:30 AM 69.8 °F - 64.4 °F 83% 30.01 in 6.2 mi SSE 8.1 mph - N/A   Partly Cloudy
6:00 AM 66.2 °F - 62.6 °F 88% 30.01 in 6.2 mi ESE 9.2 mph - N/A   Partly Cloudy
6:30 AM 71.6 °F - 62.6 °F 73% 30.01 in 6.2 mi South 8.1 mph - N/A   Mostly Cloudy
7:00 AM 68 °F - 64 °F 81% 30.04 in - SE 8.1 mph - -  
7:00 AM 68.0 °F - 64.4 °F 88% 30.04 in 6.2 mi SE 8.1 mph - N/A   Scattered Clouds
7:30 AM 68.0 °F - 64.4 °F 88% 30.04 in 6.2 mi South 6.9 mph - N/A   Scattered Clouds
8:00 AM 73.4 °F - 64.4 °F 73% 30.04 in 6.2 mi SE 10.4 mph - N/A   Partly Cloudy
8:30 AM 75.2 °F - 62.6 °F 65% 30.04 in 6.2 mi SSE 9.2 mph - N/A   Partly Cloudy
9:00 AM 77 °F - 64 °F 55% 30.07 in 19 mi South 10.4 mph - -   Partly Cloudy
9:00 AM 77.0 °F - 64.4 °F 65% 30.06 in 6.2 mi South 10.4 mph - N/A   Partly Cloudy
9:30 AM 78.8 °F - 64.4 °F 61% 30.06 in 6.2 mi SSE 10.4 mph - N/A   Partly Cloudy
10:00 AM 79 °F - 64 °F 51% 30.07 in - SSE 9.2 mph - -  
10:00 AM 78.8 °F - 64.4 °F 61% 30.06 in 6.2 mi SSE 9.2 mph - N/A   Partly Cloudy
10:30 AM 80.6 °F 81.8 °F 62.6 °F 54% 30.04 in 6.2 mi ESE 10.4 mph - N/A   Partly Cloudy
11:00 AM 82.4 °F 82.9 °F 60.8 °F 48% 30.04 in 6.2 mi ESE 12.7 mph - N/A   Partly Cloudy
11:30 AM 82.4 °F 82.9 °F 60.8 °F 48% 30.04 in 6.2 mi ESE 10.4 mph - N/A   Partly Cloudy
12:00 PM 81 °F - 60 °F 38% 30.02 in - ESE 9.2 mph - -  
12:00 PM 80.6 °F 81.1 °F 59.0 °F 48% 30.01 in 6.2 mi ESE 9.2 mph - N/A   Partly Cloudy
12:30 PM 82.4 °F 83.4 °F 62.6 °F 51% 30.01 in 6.2 mi ENE 13.8 mph - N/A   Partly Cloudy
1:00 PM 83 °F - 63 °F 41% 30.00 in - ENE 13.8 mph - -  
1:00 PM 82.4 °F 83.4 °F 62.6 °F 51% 29.98 in 6.2 mi ENE 13.8 mph - N/A   Partly Cloudy
1:30 PM 80.6 °F 82.3 °F 64.4 °F 58% 29.98 in 6.2 mi NE 13.8 mph - N/A   Partly Cloudy
2:00 PM 80.6 °F 82.3 °F 64.4 °F 58% 29.98 in 6.2 mi NE 12.7 mph - N/A   Partly Cloudy
2:30 PM 82.4 °F 83.9 °F 64.4 °F 54% 29.95 in 6.2 mi ENE 12.7 mph - N/A   Partly Cloudy
3:00 PM 80 °F - 66 °F 54% 29.96 in 19 mi NE 13.8 mph - -   Partly Cloudy
3:00 PM 80.6 °F 82.7 °F 66.2 °F 61% 29.95 in 6.2 mi NE 13.8 mph - N/A   Partly Cloudy
3:30 PM 80.6 °F 81.8 °F 62.6 °F 54% 29.95 in 6.2 mi ENE 15.0 mph - N/A   Partly Cloudy
4:00 PM 80 °F - 63 °F 47% 29.97 in - ENE 12.7 mph - -  
4:00 PM 78.8 °F - 62.6 °F 57% 29.95 in 6.2 mi ENE 12.7 mph - N/A   Partly Cloudy
4:30 PM 78.8 °F - 62.6 °F 57% 29.95 in 6.2 mi ENE 11.5 mph - N/A   Partly Cloudy
5:00 PM 78.8 °F - 60.8 °F 54% 29.98 in 6.2 mi East 10.4 mph - N/A   Partly Cloudy
5:30 PM 77.0 °F - 62.6 °F 61% 29.98 in 6.2 mi East 10.4 mph - N/A   Partly Cloudy
6:00 PM 75 °F - 62 °F 55% 30.00 in - SE 6.9 mph - -  
6:00 PM 75.2 °F - 62.6 °F 65% 29.98 in 6.2 mi SE 6.9 mph - N/A   Partly Cloudy
6:30 PM 73.4 °F - 60.8 °F 65% 29.98 in 6.2 mi SSE 5.8 mph - N/A   Partly Cloudy
7:00 PM 72 °F - 64 °F 68% 30.01 in - South 5.8 mph - -  
7:00 PM 71.6 °F - 64.4 °F 78% 30.01 in 6.2 mi South 5.8 mph - N/A   Partly Cloudy
7:30 PM 73.4 °F - 64.4 °F 73% 30.01 in 6.2 mi South 8.1 mph - N/A   Partly Cloudy
8:00 PM 73.4 °F - 64.4 °F 73% 30.04 in 6.2 mi South 8.1 mph - N/A   Partly Cloudy
8:30 PM 71.6 °F - 62.6 °F 73% 30.04 in 6.2 mi South 6.9 mph - N/A   Partly Cloudy
9:00 PM 72 °F - 64 °F 69% 30.04 in - South 9.2 mph - -  
9:00 PM 71.6 °F - 64.4 °F 78% 30.04 in 6.2 mi South 9.2 mph - N/A   Partly Cloudy
9:30 PM 71.6 °F - 64.4 °F 78% 30.04 in 6.2 mi South 6.9 mph - N/A   Partly Cloudy
10:00 PM 70 °F - 64 °F 74% 30.05 in - South 5.8 mph - -  
10:00 PM 69.8 °F - 64.4 °F 83% 30.04 in 6.2 mi South 5.8 mph - N/A   Partly Cloudy
10:30 PM 69.8 °F - 62.6 °F 78% 30.04 in 6.2 mi SSE 6.9 mph - N/A   Partly Cloudy
11:00 PM 69.8 °F - 62.6 °F 78% 30.04 in 6.2 mi SSE 8.1 mph - N/A   Partly Cloudy
11:30 PM 68.0 °F - 62.6 °F 83% 30.04 in 6.2 mi SSW 3.5 mph - N/A   Partly Cloudy